Wind_Speed
59 58 60 64 57 56 57 48 49 49 50 47 48 52 52 54 56 58 57 53 49 48 50 49 51 53 49 49 51 48 45 41 42 34 31 35 37 38
56 57 59 62 62 62 68 68 67 66 61 58 56 56 57 55 51 51 49 42 42 46 45 44 47 44 45 46 47 43 40 33 30 34 37 39 40 41
47 48 51 53 58 62 63 64 64 62 58 57 58 54 54 54 52 50 46 47 47 45 49 42 44 43 44 48 37 33 30 32 41 41 43 42 44 45
31 35 40 45 47 47 49 49 47 48 48 48 51 55 54 53 52 51 48 41 44 43 45 48 48 49 52 45 35 36 41 43 43 44 45 47 49 50
21 25 28 32 35 36 38 41 42 45 45 45 45 47 47 50 44 41 44 45 53 48 50 46 47 45 36 34 38 42 47 47 48 48 50 51 51 52
16 18 20 24 28 32 33 33 35 35 35 36 34 31 33 35 38 34 35 32 32 40 44 35 37 41 44 46 47 51 53 53 54 54 54 54 55 56
8 12 15 19 23 25 29 31 30 27 25 29 33 27 20 23 30 33 36 39 40 39 39 42 46 49 50 51 54 56 58 59 59 60 61 63 64 64
11 10 12 10 1 5 5 4 8 11 15 19 24 29 34 36 39 42 44 44 47 49 48 55 55 58 60 62 63 65 66 68 68 68 68 68 68 66
14 15 14 12 9 13 16 18 23 29 30 32 35 38 41 43 45 49 50 52 54 56 55 57 60 61 64 66 67 69 71 72 72 71 70 71 72 74
17 17 18 19 21 23 25 27 30 33 36 39 42 45 47 49 52 54 55 57 59 62 61 60 65 65 67 69 70 72 73 75 75 76 76 76 75 73
25 26 27 28 29 31 33 35 37 39 42 44 47 49 52 54 56 59 60 62 63 68 68 66 68 69 72 75 76 76 76 76 76 77 77 77 78 79
30 31 32 33 35 37 39 41 43 45 47 49 51 53 56 59 61 64 66 68 70 72 75 74 77 79 77 77 78 80 80 82 82 82 81 81 81 81
36 37 37 38 39 40 42 44 45 48 51 54 57 60 63 66 69 71 73 75 78 80 83 84 84 86 86 85 85 87 87 87 88 88 88 86 85 81
39 40 41 42 43 45 46 48 51 54 57 61 63 62 66 70 74 77 79 81 81 82 81 82 81 80 79 75 74 74 75 76 75 74 73 72 65 60
44 45 46 47 49 50 51 53 54 56 59 60 65 68 72 74 75 75 76 74 72 68 66 61 58 56 56 56 55 58 57 59 57 54 49 45 46 45
47 46 47 49 50 51 51 53 54 56 61 65 67 69 69 69 67 60 52 48 47 49 50 48 48 49 49 51 49 47 47 45 44 42 42 40 35 33
44 46 48 50 48 46 48 52 58 61 64 66 65 62 56 49 47 46 46 46 46 46 47 48 48 46 44 41 41 41 38 36 35 34 32 29 25 21
44 44 44 44 45 50 54 54 58 60 60 60 55 48 45 44 46 48 48 47 46 45 43 40 40 41 40 38 33 32 30 26 26 23 21 18 13 12
47 45 44 48 51 53 55 57 59 58 56 48 43 42 44 45 46 46 44 41 40 40 41 38 37 36 33 31 30 25 22 19 18 16 15 11 9 11
45 46 51 51 51 53 54 56 56 53 45 40 40 42 42 41 41 40 40 40 40 40 38 35 32 30 28 25 23 18 16 14 13 12 8 8 6 10
46 49 50 50 51 52 53 55 53 45 39 39 41 41 40 39 39 39 40 39 38 37 36 34 29 26 23 20 18 15 12 12 10 7 8 6 7 9
48 49 49 48 50 51 52 51 44 39 37 38 40 40 38 38 37 38 38 37 37 36 34 30 27 22 19 16 14 13 9 9 7 6 8 8 10 14
48 47 47 48 49 48 47 43 38 36 36 39 40 39 38 37 36 37 38 37 38 38 32 27 22 18 14 11 11 10 9 8 6 8 9 10 16 22
Wind_Direction
247 248 247 245 246 243 255 252 267 266 265 276 277 278 278 276 276 277 276 277 273 270 273 273 276 269 272 275 276 272 269 263 258 256 266 264 268 269
248 247 248 247 244 245 248 256 266 272 279 281 282 282 279 274 272 275 276 272 280 271 273 283 276 273 278 275 264 264 262 251 255 271 272 267 266 267
253 253 255 254 251 250 252 257 264 271 275 278 279 278 277 274 277 274 274 275 267 278 275 277 268 272 269 263 259 261 260 257 267 272 269 270 271 272
257 256 255 256 256 258 259 262 265 266 265 267 273 273 273 275 277 276 273 278 282 273 262 260 263 269 266 252 254 266 268 268 270 273 274 274 273 274
265 260 258 257 253 253 255 258 261 260 261 263 267 272 274 272 271 272 270 271 274 268 268 271 270 262 259 270 273 270 278 278 274 273 274 274 275 276
271 265 260 257 254 255 258 260 260 264 266 266 272 272 266 265 268 272 268 266 269 266 262 270 282 282 279 277 275 272 273 273 273 273 273 274 274 273
282 273 266 260 259 261 260 259 262 271 269 269 267 260 271 286 286 282 277 277 283 289 288 283 279 277 275 274 273 274 274 273 272 273 273 273 273 273
33 34 49 50 341 256 346 259 245 273 273 273 272 274 273 273 274 277 278 280 280 280 281 282 278 278 277 276 277 277 276 276 277 276 276 276 276 276
327 325 322 315 293 288 284 281 274 279 280 279 279 278 279 280 282 281 280 280 280 279 278 278 278 278 279 279 279 278 278 278 278 278 278 277 276 277
305 299 298 297 294 289 282 279 279 280 281 282 282 282 282 282 281 281 280 280 280 280 280 278 279 279 278 277 277 276 276 276 276 276 275 275 274 274
300 298 296 292 289 288 287 286 284 283 282 281 281 282 282 282 282 282 282 282 282 282 280 277 277 277 278 279 278 276 276 275 275 275 275 275 275 275
293 290 288 287 285 285 285 285 285 284 284 284 284 284 285 285 285 285 284 283 282 281 282 280 280 279 276 282 284 282 281 280 279 278 278 277 278 277
293 291 290 288 287 288 289 289 290 291 292 292 290 290 291 290 288 286 285 283 282 281 279 278 278 280 279 276 281 282 281 281 280 280 279 279 279 278
296 295 294 293 292 292 291 290 290 290 291 290 292 295 293 292 291 290 289 288 286 285 284 284 283 282 282 282 281 281 281 282 281 280 280 278 278 277
295 295 295 295 295 293 293 294 295 294 295 296 295 295 296 297 297 296 295 293 292 291 290 291 290 289 288 286 285 283 283 284 284 283 281 279 278 278
293 291 292 293 293 293 295 295 297 298 298 298 300 301 302 302 303 304 303 301 301 301 299 297 295 293 290 290 289 287 286 285 285 284 284 283 281 276
300 297 295 296 300 300 300 300 302 302 303 303 304 306 311 312 311 310 308 306 303 300 298 298 296 294 295 292 291 290 289 286 283 282 283 281 276 271
299 299 299 299 300 301 302 303 302 303 304 307 310 311 311 310 309 308 305 305 304 302 302 300 299 300 299 297 295 292 290 284 281 279 274 271 262 246
299 299 301 302 304 305 306 306 306 307 310 310 311 310 310 308 307 308 308 309 309 307 306 307 306 303 301 298 296 293 287 282 277 271 266 243 237 212
299 302 303 304 306 307 308 309 308 308 308 309 309 310 310 310 312 313 311 312 314 314 312 311 306 302 300 299 294 291 285 278 267 264 231 216 208 205
300 301 302 305 308 309 308 309 308 307 307 309 309 309 312 312 313 312 313 315 317 315 311 309 307 305 302 298 291 290 279 262 250 230 212 212 182 193
299 301 303 306 307 309 310 309 305 304 305 311 313 314 314 314 314 314 315 316 317 318 314 310 309 306 300 292 283 278 260 241 221 212 209 191 173 181
299 301 304 307 310 310 309 305 301 302 305 311 313 315 314 313 314 314 316 319 320 319 314 309 304 300 294 286 276 262 237 214 217 202 189 174 167 164
Height
5638 5643 5648 5653 5660 5667 5654 5661 5663 5662 5666 5669 5672 5674 5675 5675 5673 5671 5671 5671 5668 5667 5666 5663 5661 5661 5661 5661 5660 5659 5658 5658 5659 5661 5663 5665 5666 5667
5625 5630 5634 5640 5645 5650 5650 5649 5650 5652 5655 5658 5660 5660 5662 5660 5659 5658 5658 5657 5656 5655 5652 5651 5650 5649 5649 5649 5647 5647 5646 5645 5649 5652 5654 5654 5655 5655
5617 5620 5624 5629 5634 5638 5641 5643 5645 5645 5647 5648 5649 5649 5647 5645 5645 5645 5645 5644 5643 5643 5641 5640 5638 5637 5637 5637 5636 5637 5639 5640 5641 5641 5641 5641 5642 5642
5609 5611 5615 5619 5624 5628 5632 5635 5636 5636 5637 5636 5637 5637 5636 5633 5632 5631 5633 5632 5631 5629 5629 5626 5626 5625 5625 5624 5626 5627 5628 5628 5628 5628 5628 5628 5628 5628
5603 5605 5608 5611 5615 5619 5622 5624 5625 5625 5624 5625 5626 5625 5624 5622 5621 5620 5621 5622 5619 5619 5617 5614 5614 5612 5612 5613 5615 5615 5615 5615 5615 5615 5614 5614 5614 5613
5600 5600 5602 5604 5607 5610 5612 5614 5615 5615 5616 5616 5617 5614 5614 5613 5612 5611 5610 5607 5606 5606 5604 5603 5603 5602 5602 5602 5603 5603 5602 5601 5600 5600 5600 5599 5599 5597
5598 5598 5598 5599 5601 5603 5604 5605 5606 5605 5605 5606 5607 5606 5605 5604 5604 5604 5603 5600 5596 5595 5595 5593 5592 5591 5589 5588 5588 5587 5585 5585 5584 5583 5582 5581 5580 5579
5598 5598 5597 5596 5597 5598 5599 5599 5600 5600 5599 5599 5599 5598 5597 5596 5594 5593 5591 5589 5586 5584 5584 5578 5578 5574 5572 5570 5569 5568 5566 5564 5563 5563 5562 5560 5558 5557
5600 5598 5598 5597 5597 5596 5596 5596 5596 5595 5593 5592 5590 5589 5587 5585 5583 5580 5578 5575 5572 5568 5569 5565 5560 5557 5553 5550 5549 5547 5546 5545 5544 5542 5541 5539 5536 5535
5597 5595 5594 5593 5592 5591 5590 5589 5588 5586 5584 5581 5579 5577 5575 5572 5569 5566 5563 5559 5555 5549 5550 5549 5541 5539 5533 5529 5527 5525 5524 5523 5522 5520 5519 5516 5513 5511
5593 5591 5589 5587 5585 5584 5582 5580 5577 5575 5573 5570 5567 5564 5561 5558 5554 5550 5546 5543 5539 5531 5528 5528 5522 5520 5514 5505 5501 5500 5500 5499 5497 5495 5493 5491 5488 5487
5586 5584 5581 5579 5577 5574 5572 5570 5567 5565 5562 5558 5555 5551 5546 5542 5538 5534 5529 5524 5519 5515 5505 5507 5500 5494 5498 5485 5476 5473 5473 5471 5470 5469 5467 5465 5462 5460
5578 5575 5572 5569 5566 5564 5561 5559 5555 5552 5548 5544 5539 5535 5530 5525 5520 5514 5508 5503 5497 5490 5483 5480 5478 5470 5467 5467 5456 5448 5448 5444 5443 5441 5439 5438 5435 5431
5569 5566 5563 5560 5557 5554 5550 5546 5543 5539 5534 5529 5524 5518 5512 5506 5499 5491 5484 5476 5468 5463 5457 5450 5448 5443 5439 5437 5435 5424 5422 5419 5418 5415 5413 5411 5409 5407
5559 5555 5552 5549 5546 5542 5538 5533 5529 5524 5519 5512 5506 5499 5492 5483 5475 5467 5458 5450 5441 5434 5431 5427 5423 5420 5416 5413 5413 5406 5406 5398 5397 5395 5393 5392 5390 5390
5546 5542 5538 5535 5531 5527 5523 5518 5513 5507 5501 5494 5486 5478 5470 5461 5452 5446 5439 5433 5427 5419 5413 5411 5408 5405 5401 5395 5393 5390 5387 5384 5381 5380 5378 5377 5377 5376
5533 5529 5525 5521 5516 5512 5508 5503 5497 5491 5484 5478 5470 5461 5452 5445 5438 5433 5427 5421 5416 5411 5403 5397 5393 5390 5385 5382 5378 5375 5373 5371 5370 5369 5367 5367 5366 5366
5521 5517 5512 5508 5503 5499 5493 5488 5482 5476 5468 5461 5453 5447 5441 5435 5429 5422 5417 5410 5404 5397 5392 5387 5382 5377 5372 5369 5367 5364 5362 5361 5360 5360 5360 5359 5361 5363
5509 5505 5501 5496 5491 5486 5480 5474 5468 5461 5453 5447 5442 5437 5431 5424 5418 5412 5405 5399 5393 5387 5381 5376 5371 5367 5363 5359 5357 5356 5354 5354 5354 5354 5355 5356 5358 5360
5497 5494 5489 5483 5478 5472 5466 5460 5454 5448 5442 5436 5432 5427 5421 5414 5408 5401 5395 5389 5383 5377 5371 5366 5362 5358 5355 5353 5350 5350 5349 5349 5350 5350 5352 5355 5357 5360
5485 5480 5475 5470 5465 5459 5453 5447 5441 5436 5432 5427 5422 5416 5411 5405 5399 5393 5387 5380 5375 5369 5363 5358 5355 5351 5348 5346 5345 5346 5346 5346 5347 5349 5351 5354 5357 5360
5472 5467 5463 5457 5452 5446 5440 5434 5430 5427 5422 5417 5412 5407 5401 5396 5391 5384 5379 5373 5367 5361 5356 5351 5347 5345 5343 5342 5342 5343 5343 5344 5346 5348 5350 5353 5357 5360
5459 5454 5449 5444 5439 5433 5428 5424 5420 5416 5413 5408 5403 5398 5393 5388 5383 5376 5370 5365 5359 5353 5349 5344 5341 5340 5339 5339 5339 5340 5342 5343 5345 5347 5349 5352 5356 5360